Hourly Data Report for June 20, 2003

TORONTO CITY
ONTARIO

43°40'00.000" N
79°24'00.000" W
112.50 m
6158355
71508
XTO

Download Data

Hourly Data (June 2003)
Hourly Data Report for June 20, 2003
TIME
LST
Temp Definition
°C
Dew Point Definition
°C
Rel Hum Definition
%
Precip. Amount Definition
mm

Wind Dir Definition
10's deg

Wind Spd Definition
km/h
Visibility Definition
km
Stn Press Definition
kPa
Hmdx Definition


Wind Chill Definition


Weather Definition


00:00 14.4 7.4 63   LegendMM LegendMM LegendMM 100.22     LegendNANA
01:00 14.0 7.9 67   LegendMM LegendMM LegendMM 100.24     LegendNANA
02:00 13.1 8.4 73   LegendMM LegendMM LegendMM 100.26     LegendNANA
03:00 13.0 8.5 74   LegendMM LegendMM LegendMM 100.29     LegendNANA
04:00 12.6 8.0 74   LegendMM LegendMM LegendMM 100.33     LegendNANA
05:00 13.1 8.2 72   LegendMM LegendMM LegendMM 100.37     LegendNANA
06:00 13.7 8.9 73   LegendMM LegendMM LegendMM 100.37     LegendNANA
07:00 14.9 8.9 67   LegendMM LegendMM LegendMM 100.39     LegendNANA
08:00 16.7 9.1 61   LegendMM LegendMM LegendMM 100.40     LegendNANA
09:00 18.3 8.9 54   LegendMM LegendMM LegendMM 100.41     LegendNANA
10:00 19.4 8.4 49   LegendMM LegendMM LegendMM 100.41     LegendNANA
11:00 19.2 9.4 53   LegendMM LegendMM LegendMM 100.42     LegendNANA
12:00 19.9 9.6 51   LegendMM LegendMM LegendMM 100.38     LegendNANA
13:00 19.5 9.8 53   LegendMM LegendMM LegendMM 100.42     LegendNANA
14:00 20.1 11.1 56   LegendMM LegendMM LegendMM 100.34     LegendNANA
15:00 20.9 11.6 55   LegendMM LegendMM LegendMM 100.28     LegendNANA
16:00 19.9 11.0 56   LegendMM LegendMM LegendMM 100.27     LegendNANA
17:00 19.0 10.0 56   LegendMM LegendMM LegendMM 100.22     LegendNANA
18:00 19.0 9.2 53   LegendMM LegendMM LegendMM 100.18     LegendNANA
19:00 18.9 8.8 52   LegendMM LegendMM LegendMM 100.19     LegendNANA
20:00 17.9 8.6 54   LegendMM LegendMM LegendMM 100.18     LegendNANA
21:00 17.9 9.1 56   LegendMM LegendMM LegendMM 100.20     LegendNANA
22:00
23:00 18.3 9.6 57   LegendMM LegendMM LegendMM 100.25     LegendNANA

Notes on Data Quality.

Legend

  • E = Estimated
  • M = Missing
  • NA = Not Available*
  • [empty] = Indicates an unobserved value
Date modified: